Location: Stuttgart
(48.8069°N, 9.1544°E)
Time: 18:37:55
(UTC+01:00)

ISS - Pass Details

Date: 14 November 2017
Orbit: 402 x 407 km, 51.6° (Epoch: 20 November)

Event Time Altitude Azimuth Distance (km) Brightness Sun altitude
Exits shadow 05:45:25 51° 251° (WSW) 514 -3.7 -17.3°
Maximum altitude 05:45:55 60° 207° (SSW) 466 -3.7 -17.2°
Drops below altitude 10° 05:49:08 10° 127° (SE) 1,452 -0.1 -16.7°
Sets 05:51:13 0° 123° (ESE) 2,308 1.3 -16.3°
